Regional Weather Roundup
Issued by NWS Newport/Morehead, NC

Current Version | Previous Version | Graphics & Text | Print | Product List | Glossary On
Versions: 1 2 3 4 5 6 7 8 9 10 11 12 13 14 15 16 17 18 19 20 21 22 23 24 25 26 27 28 29 30 31 32 33 34 35 36 37 38 39 40 41 42 43 44 45 46 47 48 49 50
000 ASUS42 KMHX 031624 RWRMHX WEATHER ROUNDUP FOR EASTERN NORTH CAROLINA NATIONAL WEATHER SERVICE NEWPORT/MOREHEAD CITY NC 1100 AM EST TUE MAR 03 2015 NOTE: "FAIR" INDICATES FEW OR NO CLOUDS BELOW 12,000 FEET WITH NO SIGNIFICANT WEATHER AND/OR OBSTRUCTIONS TO VISIBILITY NCZ015>017-031-032-045>047-102-103-031700- NORTH COAST CITY SKY/WX TMP DP RH WIND PRES REMARKS EDENTON CLOUDY 40 31 70 CALM 30.41S ELIZABETH CITY CLOUDY 40 29 64 NE9 30.41F KITTY HAWK PTSUNNY 40 32 72 N9 30.38F MANTEO CLOUDY 43 32 65 NE10 30.39F $$ NCZ045>047-081-094-103-104-031700- CENTRAL COAST CITY SKY/WX TMP DP RH WIND PRES REMARKS FRISCO CLOUDY 43 37 79 NE12 30.37F SWANQUARTER N/A 45 N/A N/A NE8G14 30.33S $$ NCZ095-097-098-100-101-031700- SOUTHERN COAST CITY SKY/WX TMP DP RH WIND PRES REMARKS BEAUFORT CLOUDY 45 34 65 NE8 30.36F CEDAR ISLAND N/A 41 N/A N/A N9 30.39F JACKSONVILLE LGT RAIN 42 31 64 NE8 30.36F PINEY ISLAND N/A N/A N/A N/A MISG 30.37F WILMINGTON CLOUDY 41 36 82 NE8 30.35F $$ NCZ011>013-027>030-043-044-078>080-089-090>093-098-031700- COASTAL PLAIN CITY SKY/WX TMP DP RH WIND PRES REMARKS AHOSKIE CLOUDY 34 23 63 NE3 30.41F CLINTON CLOUDY 39 29 67 NE3 30.36S ELIZABETHTOWN CLOUDY 41 28 60 CALM 30.33F GOLDSBORO LGT RAIN 39 34 81 NE9 30.35F GREENVILLE DRIZZLE 37 28 70 N5 30.40F HAVELOCK CLOUDY 45 32 60 NE8 30.39F KENANSVILLE CLOUDY 38 31 73 NE5 30.36F KINSTON DRIZZLE 37 30 75 NE7 30.39F NEW BERN CLOUDY 42 29 59 NE6 30.38F RICHLANDS CLOUDY 39 30 70 NE10 30.36F ROCKY MOUNT CLOUDY 38 22 52 E6 30.39F WASHINGTON CLOUDY 38 29 68 NE3 30.39F WHITEVILLE CLOUDY 43 30 60 NE6 30.32F $$ AMZ130-135-150-152-154-156-158-170-250-252-270-ANZ085-086-088-633-658-670-031700- MARINE OBSERVATIONS STATION/POSITION TIME TEMP WIND PRES WAVE SWELL AIR SEA DIR/SP/G HT/PER HT/PER (UTC) (F) (DEG/KT/KT) (MB) (FT/S) (FT/S) CHESAPEAKE LIGHT 1600 35 50/ 10/ 11 1030.1 64 E VA BEACH 1550 47 62 80/ 4/ 6 1029.7 4/ 6 3/ 6 DUCK 1600 36 35 1028.2 2 E DUCK 1511 35 N/A 4/ 6 10 NE DUCK 1522 37 N/A 4/ 6 OREGON INLET 1600 40 39 1028.9 HATTERAS CG 1600 42 42 1028.8 CAPE LOOKOUT 1600 43 40/ 15/ 17 1027.8 BEAUFORT LAB 1600 44 44 1027.2 27 SE WRIGHTSVLE NOT AVBL 5 SE WRIGHTSVLE NOT AVBL 225 S CAPE HAT 1550 65 73 90/ 16/ 19 1027.2 7/ 7 41 SE CHARLESTON 1550 68 69 90/ 14/ 16 1024.0 6/ 8 5/ 8 $$

USA.gov is the U.S. government's official web portal to all federal, state and local government web resources and services.